Location: Newark
(32.8014°N, 52.8711°E)
Time: 07:25:13
(UTC+00:00)

Envisat - Pass Details

Date: 24 January 2020
Orbit: 764 x 766 km, 98.1° (Epoch: 20 February)

Event Time Altitude Azimuth Distance (km) Brightness Sun altitude
Rises 01:52:38 0° 36° (NE) 3,233 6.6 -20.1°
Reaches altitude 10° 01:56:01 10° 59° (ENE) 2,302 6.1 -19.4°
Maximum altitude 01:58:48 15° 93° (E) 1,984 6.2 -18.8°
Drops below altitude 10° 02:01:35 10° 127° (SE) 2,293 6.5 -18.3°
Sets 02:04:55 0° 150° (SSE) 3,214 6.9 -17.6°
